Tulsa International Airport Airport (TUL)

 

Airport Diagram
Current Weather/Forecast (MVFR Conditions)
METAR KTUL 280253Z 02008KT 5SM -RA BR FEW015 SCT036 OVC060 14/12 A2997 RMK AO2 RAB11 SLP143 P0012 60012 T01390122 53033
TAF KTUL 280109Z 2801/2824 01020G35KT P6SM -SHRA VCTS SCT020 BKN040CB FM280200 01020G35KT P6SM -SHRA VCTS OVC050CB TEMPO 2802/2804 4SM -TSRA OVC040CB FM280400 01015G30KT P6SM OVC060 FM280700 32011KT P6SM SCT100 FM281400 33012G22KT P6SM SKC

All Charts
General
Chart Name Download
AIRPORT DIAGRAM
TAKEOFF MINIMUMS
ALTERNATE MINIMUMS
RADAR MINIMUMS

Departures
Chart Name Download
TULSA EIGHT

Arrivals
Chart Name Download
VINTA TWO

Approaches
Chart Name Download
ILS OR LOC RWY 18L
ILS OR LOC RWY 18R
ILS OR LOC RWY 36R
ILS RWY 36R (SA CAT I)
ILS RWY 36R (CAT II)
RNAV (GPS) RWY 08
RNAV (GPS) RWY 18L
RNAV (GPS) RWY 18R
RNAV (GPS) RWY 26
RNAV (GPS) RWY 36L
RNAV (GPS) RWY 36R
VOR/DME RWY 08
HI-VOR/DME OR TACAN RWY 26
VOR OR TACAN RWY 26


Inbound Traffic (Arrivals)

No inbound traffic.


Outbound Traffic (Departures)

No outbound traffic.